User: anonymous   Login
Location: ??????
(55.0357°N, 38.6195°E)
Time: 11:12:27
(UTC+00:00)
Language:

Cosmos 1743 Rocket - Orbit

View from above orbital plane
View from above orbital plane
View from above satellite
View from above satellite

Ground track
Ground track

The orbit data is extracted from the following two-line orbital elements,

1 16720U 86034B   24165.14819750  .00000646  00000-0  73574-4 0  9996
2 16720  82.5543  20.4092 0018654 319.6746 177.6140 14.84524405 57771
Epoch (UTC): 13 June 2024 03:33:24
Eccentricity: 0.0018654
inclination: 82.5543°
perigee height: 602 km
apogee height: 628 km
right ascension of ascending node: 20.4092°
argument of perigee: 319.6746°
revolutions per day: 14.84524405
mean anomaly at epoch: 177.6140°
orbit number at epoch: 5777

The dashed part of the orbit path shows where the satellite is in the earth's shadow,  

DLR